Grizzly Air Cargo 5371


PACD
Cold Bay Airport
Cold Bay, Alaska, US
PAKN
King Salmon Airport
King Salmon, Alaska, US

Activity Log

Date Flight Route Aircraft Duration
No Flights Yet

Route Details

Aircraft Information
Primary: Saab 340AF
Backup: Not Available
Route Data
Distance: 302nm
Sched. Duration: 1h 39m
Avg. Duration: 0h 00m (-140m)
Times Flown: 0
Recm'd Route: CDB J115 AKN
Planned Altitude: 25,000ft
Origin Wx: PACD 251053Z AUTO 11003KT 10SM CLR 07/03 A2982 RMK AO2 SLP098 T00670028 TSNO $
Dest. Wx: PAKN 251054Z 23003KT 10SM OVC048 06/03 A2993 RMK AO2 SLP135 T00560028
Notes:

Financial History
Total Freight: 0lbs
Average Load: 0lbs/flt
Fuel Used: 0lbs
Avg. Fuel Used: 0lbs/flt
Fuel Expense: $0
Avg. Fuel Expense: $0
Avg. Fuel Cost: $0/lbs
Total Gross Income: $0
Pilot Pay: $0
Total Expenses: $0
Total Revenue: $0
Average Revenue: $0